FW9856 Weather Reports


Display with metric or nautical units.
time (UTC)temp
F
wind
direction
speed
MPH
gust
MPH
rain 1hr
in
rain 24hr
in
rain mn
in
humidity
%
barometer
mb
20260509100028 50 194 3.0 6.0 0.00 0.00 0.00 92 1004.9
20260509094525 50 181 1.0 6.0 0.00 0.00 0.00 92 1005.2
20260509093026 50 192 1.0 6.0 0.00 0.00 0.00 92 1005.3
20260509091518 50 198 1.0 5.0 0.00 0.00 0.00 92 1005.4
20260509090016 50 190 0.0 4.0 0.00 0.00 0.00 91 1005.2
20260509084528 50 196 1.0 4.0 0.00 0.00 0.00 91 1005.2
20260509083024 50 187 1.0 4.0 0.00 0.00 0.00 91 1005.1
20260509081526 50 196 2.0 5.0 0.00 0.00 0.00 91 1005.1
20260509080023 50 211 1.0 3.0 0.00 0.00 0.00 90 1005.2
20260509074518 50 218 1.0 3.0 0.00 0.00 0.00 90 1005.4
20260509073046 51 220 0.0 4.0 0.00 0.00 0.00 90 1005.4
20260509071527 51 195 0.0 3.0 0.00 0.00 0.00 89 1005.5
20260509070030 51 194 0.0 4.0 0.00 0.00 0.00 89 1005.5
20260509064515 52 199 1.0 4.0 0.00 0.00 0.00 88 1005.8
20260509063025 52 183 1.0 4.0 0.00 0.00 0.00 88 1006.0
20260509061524 52 195 1.0 4.0 0.00 0.00 0.00 88 1006.1
20260509060026 53 196 2.0 6.0 0.00 0.00 0.00 87 1006.2
20260509054518 53 232 0.0 7.0 0.00 0.00 0.00 87 1006.2
20260509053018 54 229 3.0 12.0 0.00 0.00 0.00 86 1006.3
20260509051501 54 184 2.0 8.0 0.00 0.00 0.00 86 1006.2
20260509050006 54 205 2.0 9.0 0.00 0.00 0.00 85 1006.4
20260509044513 55 198 2.0 7.0 0.00 0.00 0.00 84 1006.5
20260509043016 55 216 1.0 6.0 0.00 0.00 0.00 84 1006.6
20260509041514 55 198 3.0 6.0 0.00 0.00 0.00 83 1006.6
20260509040022 56 192 2.0 5.0 0.00 0.00 0.00 82 1006.8
20260509034508 56 212 1.0 8.0 0.00 0.00 0.00 81 1007.0
20260509033012 57 190 2.0 8.0 0.00 0.00 0.00 79 1006.8
20260509031518 57 179 3.0 9.0 0.00 0.00 0.00 78 1007.0
20260509030020 57 192 2.0 6.0 0.00 0.00 0.00 77 1007.0
20260509024526 58 186 0.0 7.0 0.00 0.00 0.00 76 1007.1
20260509023014 58 204 1.0 9.0 0.00 0.00 0.00 75 1007.1
20260509021517 58 187 2.0 7.0 0.00 0.00 0.00 76 1007.0
20260509020013 59 196 1.0 6.0 0.00 0.00 0.00 75 1006.8
20260509014519 59 182 2.0 7.0 0.00 0.00 0.00 74 1006.6
20260509013042 60 184 3.0 9.0 0.00 0.00 0.00 73 1006.7
20260509011506 61 234 2.0 9.0 0.00 0.00 0.00 71 1006.7
20260509010023 61 186 1.0 3.0 0.00 0.00 0.00 68 1006.5
20260509004554 62 186 0.0 2.0 0.00 0.00 0.00 68 1006.5
20260509003027 62 186 0.0 4.0 0.00 0.00 0.00 66 1006.4
20260509001527 63 177 0.0 7.0 0.00 0.00 0.00 65 1006.5
20260509000007 64 168 3.0 9.0 0.00 0.00 0.00 64 1006.6
20260508234513 64 169 3.0 8.0 0.00 0.00 0.00 64 1006.5
20260508233020 64 168 3.0 8.0 0.00 0.02 0.00 65 1006.6
20260508231523 64 190 2.0 10.0 0.00 0.04 0.00 66 1006.6
20260508230039 65 225 3.0 11.0 0.00 0.04 0.00 64 1006.6
20260508224509 64 182 2.0 9.0 0.00 0.04 0.00 66 1006.6
20260508223021 65 173 6.0 10.0 0.00 0.04 0.00 64 1006.7
20260508221528 66 204 4.0 10.0 0.00 0.04 0.00 61 1006.7
20260508220026 66 173 2.0 6.0 0.00 0.04 0.00 62 1006.7
20260508214530 66 186 2.0 6.0 0.00 0.04 0.00 61 1006.8
20260508213013 65 162 3.0 7.0 0.00 0.04 0.00 62 1006.9
20260508211519 65 98 3.0 7.0 0.00 0.04 0.00 63 1006.9
20260508210020 66 250 0.0 5.0 0.00 0.04 0.00 62 1007.0
20260508204528 65 163 2.0 5.0 0.00 0.04 0.00 67 1007.1
20260508203008 64 132 1.0 6.0 0.00 0.04 0.00 65 1007.6
20260508201516 64 188 3.0 7.0 0.00 0.04 0.00 64 1007.8
20260508200004 64 202 1.0 6.0 0.00 0.04 0.00 64 1008.0
20260508194504 63 184 2.0 8.0 0.00 0.04 0.00 62 1008.1
20260508193008 63 188 2.0 7.0 0.00 0.04 0.00 63 1008.1
20260508191514 64 178 2.0 6.0 0.00 0.04 0.00 63 1008.3
20260508190015 63 126 3.0 9.0 0.00 0.04 0.00 65 1008.5
20260508184504 64 113 2.0 7.0 0.00 0.04 0.00 66 1008.7
20260508183006 64 199 4.0 7.0 0.00 0.04 0.00 65 1008.8
20260508181543 63 149 1.0 8.0 0.00 0.04 0.00 67 1009.0
20260508180012 62 130 0.0 3.0 0.00 0.04 0.00 66 1009.0
20260508174518 63 240 2.0 8.0 0.00 0.04 0.00 66 1009.4
20260508173004 63 284 2.0 6.0 0.00 0.04 0.00 68 1009.6
20260508171508 62 159 3.0 5.0 0.00 0.04 0.00 70 1009.9
20260508170014 61 173 1.0 6.0 0.00 0.04 0.00 71 1010.2
20260508164518 61 140 1.0 4.0 0.00 0.04 0.00 71 1010.4
20260508163020 61 182 3.0 7.0 0.00 0.04 0.00 72 1010.7
20260508161506 61 192 3.0 6.0 0.00 0.04 0.00 70 1010.7
20260508160015 60 192 0.0 5.0 0.00 0.04 0.00 72 1010.8
20260508154513 60 184 3.0 6.0 0.00 0.04 0.00 72 1010.9
20260508153018 60 194 2.0 6.0 0.00 0.04 0.00 72 1011.1
20260508151530 60 192 4.0 14.0 0.00 0.04 0.00 74 1011.1
20260508150011 59 126 2.0 5.0 0.00 0.04 0.00 78 1011.3
20260508144519 58 181 1.0 5.0 0.00 0.04 0.00 80 1011.3
20260508143013 57 186 2.0 7.0 0.00 0.04 0.00 82 1011.4
20260508141521 56 171 1.0 7.0 0.00 0.04 0.00 82 1011.4
20260508140024 55 185 1.0 3.0 0.00 0.04 0.00 84 1011.4
20260508134507 53 185 1.0 4.0 0.00 0.04 0.00 86 1011.4
20260508133036 52 160 2.0 4.0 0.00 0.04 0.00 88 1011.4
20260508131519 51 209 0.0 2.0 0.00 0.04 0.00 88 1011.6
20260508130021 50 213 0.0 0.0 0.00 0.04 0.00 89 1011.4
20260508124530 49 213 0.0 0.0 0.00 0.04 0.00 90 1011.6
20260508123026 48 213 0.0 0.0 0.00 0.04 0.00 91 1011.8
20260508121516 47 213 0.0 0.0 0.00 0.04 0.00 91 1011.9
20260508120019 47 213 0.0 0.0 0.00 0.04 0.00 90 1011.8
20260508114525 46 216 0.0 0.0 0.00 0.04 0.00 91 1011.4
20260508113028 46 216 0.0 0.0 0.00 0.04 0.00 91 1011.6
20260508111533 46 216 0.0 0.0 0.00 0.04 0.00 90 1011.1
20260508110037 45 216 0.0 0.0 0.00 0.04 0.00 90 1011.2
20260508104523 45 216 0.0 0.0 0.00 0.04 0.00 90 1011.1
20260508103026 45 216 0.0 1.0 0.00 0.04 0.00 90 1011.4
20260508101526 45 216 0.0 0.0 0.00 0.04 0.00 89 1011.1